Regional Weather Roundup
Issued by NWS

Home | Current Version | Previous Version | Graphics & Text | Print | Product List | Glossary On
Versions: 1 2 3 4 5 6 7 8 9 10 11 12 13 14 15 16 17 18 19 20 21 22 23 24 25 26 27
000
ASUS45 KTFX 071310
RWRMT
MONTANA REGIONAL WEATHER ROUNDUP
NATIONAL WEATHER SERVICE GREAT FALLS MT
600 AM MST WED DEC 07 2016

NOTE: "FAIR" INDICATES FEW OR NO CLOUDS BELOW 12000 FEET WITH NO
SIGNIFICANT WEATHER AND/OR OBSTRUCTIONS TO VISIBILITY.

MTZ001>007-043-071400-
WEST OF THE DIVIDE

CITY           SKY/WX    TMP DP  RH WIND       PRES   REMARKS
KALISPELL      CLOUDY     7  -4  60 N13       30.37R WCI  -9
MISSOULA       CLOUDY    12  -1  56 E15       30.34R WCI  -4
BUTTE          CLOUDY     1  -5  75 CALM      30.15R
MULLAN PASS    CLOUDY     5   2  87 CALM      30.06R
ANACONDA         N/A      1  -6  71 N5        30.22R
DEER LODGE       N/A      1  -8  66 NW6       30.27R WCI -10
EUREKA           N/A     -9 -15  77 CALM      30.44R
HAMILTON         N/A     12   1  62 CALM      30.29R
LIBBY            N/A     14   1  57 CALM      30.39R
PLAINS           N/A     16   1  51 N6        30.36R WCI   8
RONAN            N/A     14   6  70 CALM      30.32R
$$

MTZ008-052>055-071400-
SOUTHWEST MONTANA

CITY           SKY/WX    TMP DP  RH WIND       PRES   REMARKS
BOZEMAN        CLOUDY     4  -2  76 SW7       30.27R WCI  -8
DILLON         CLOUDY     1  -5  75 NE6       30.17R WCI -10
W YELLOWSTONE  CLOUDY   -29 -35  75 CALM      30.06R
ENNIS          CLOUDY    -2  -6  84 CALM      30.22R
THREE FORKS      N/A      4 -65   3 N5        30.25R
TWIN BRIDGES     N/A      3  -8  60 N10       30.16R WCI -12
$$

MTZ009-010-012-014-046-048-049-054-071400-
EAST SLOPES AND CENTRAL MONTANA

CITY           SKY/WX    TMP DP  RH WIND       PRES   REMARKS
CUT BANK       CLEAR    -11 -15  82 NW7       30.39R WCI -26
GREAT FALLS    CLOUDY    -3  -8  79 W5        30.41R
HELENA         CLOUDY     1  -8  66 W10       30.37R WCI -15
AUGUSTA        FLURRIES  -5 -10  79 NE3       30.32R
BOWMANS CRNR   FLURRIES  -6 -11  80 E3        30.33R
CHOTEAU          N/A     -2  -9  71 MISG      30.40R
CONRAD           N/A     -7 -14  71 W3        30.38R
FAIRFIELD      CLOUDY    -4 -11  72 N7        30.38R WCI -18
RAYNESFORD     FLURRIES  -6 -12  76 W7        30.37R WCI -21
ULM            FLURRIES  -4  -8  81 W6        30.42R WCI -17
$$

MTZ011-013-016-021-045-047-050-051-071400-
NORTH CENTRAL MONTANA

CITY           SKY/WX    TMP DP  RH WIND       PRES   REMARKS
HAVRE          CLOUDY     0  -6  76 W12       30.49R WCI -17
LEWISTOWN      CLEAR    -11 -15  82 W7        30.33R WCI -26
N BAR RANCH    CLOUDY    -4 -15  59 NW12      30.27R WCI -22
CHINOOK          N/A      1  -6  71 W15       30.49R WCI -18
DENTON           N/A     -6 -11  80 N13G26    30.36R WCI -26
GEYSER           N/A     -5 -10  78 W12       30.34R WCI -24
GRASS RANGE    MOCLDY    -4 -10  76 W24G31    30.30R WCI -30
JUDITH GAP       N/A     -9 -14  79 N17G26    30.24R WCI -33
ROY            FLURRIES  -5  -9  80 MISG      30.34R
STANFORD       FLURRIES -13 -19  72 W7        30.30R WCI -28
$$

MTZ017>020-022>027-061-062-071400-
NORTHEAST MONTANA

CITY           SKY/WX    TMP DP  RH WIND       PRES   REMARKS
GLASGOW        PTCLDY    -1  -9  68 W25       30.41R WCI -25
JORDAN           N/A      2  -5  72 NW20      30.39R WCI -19
SIDNEY         CLEAR     -1  -7  75 NW15      30.36R WCI -21
WOLF POINT     CLOUDY     1  -9  62 W18       30.42R WCI -20
PLENTYWOOD       N/A     -6 -11  77 W17       30.29R WCI -28
POPLAR           N/A     -2  -9  71 W10       30.40R WCI -19
SCOBEY           N/A     -6 -16  62 W9        30.28R WCI -23
$$

MTZ028>42-056>058-071400-
SOUTHCENTRAL AND SOUTHEAST MONTANA

CITY           SKY/WX    TMP DP  RH WIND       PRES   REMARKS
BAKER          FLURRIES   1  -5  75 NW23      30.28R WCI -22
BILLINGS       PTCLDY     2  -3  80 SE3       30.33R
LIVINGSTON     CLOUDY     2  -7  66 NW12      30.23R WCI -15
MILES CITY     CLOUDY     4  -6  63 NW21G31   30.37R WCI -17
BIG TIMBER     CLOUDY     3  -2  78 NW6       30.27R WCI  -8
EKALAKA          N/A     -3 -11  69 W15       30.18R WCI -23
FORSYTH          N/A      1  -4  78 W10       30.40R WCI -14
LAUREL           N/A      0 -10  62 NW5       30.27R
$$

REGIONAL REPORTS...DAKOTAS

CITY           SKY/WX    TMP DP  RH WIND       PRES   REMARKS
WILLISTON      CLOUDY     0  -8  69 NW20G26   30.32R WCI -22
MINOT          LGT SNOW   5   0  79 W32G40    30.12R WCI -20
DICKINSON      CLOUDY     2  -4  76 NW22G33   30.19R HAZE    WCI -20
BEACH          LGT SNOW   0  -2  92 NW21G29   30.30R WCI -23
CROSBY         CLOUDY     0  -4  85 NW23G31   30.27R WCI -24
TIOGA          CLOUDY     0  -4  85 W23G29    30.22R FOG     WCI -24
WATFORD CITY   MOCLDY     0  -8  71 W21       30.28R WCI -23
BISMARCK       CLOUDY     6   1  80 NW20G37   30.19R WCI -14
GRAND FORKS    LGT SNOW  15  10  80 NW28G33   29.89R BLWGSNOWWCI  -5
FARGO          CLOUDY    13   6  74 W24G31    29.96R WCI  -7
BUFFALO SD       N/A      2  -5  72 NW25G33   30.16R WCI -22
RAPID CITY     CLOUDY     2  -5  72 N15       30.22R WCI -17
$$

REGIONAL REPORTS...WYOMING/IDAHO/WASHINGTON

CITY           SKY/WX    TMP DP  RH WIND       PRES   REMARKS
GILLETTE       CLOUDY    -1  -4  87 NW12      30.22R WCI -18
SHERIDAN       CLOUDY     1  -6  72 NW12      30.29R WCI -16
BUFFALO WY     CLOUDY    -1  -8  72 NW12      30.18R HAZE    WCI -18
CODY           FLURRIES  -2  -5  87 NE8       30.18R WCI -17
YELLOWSTONE LA   N/A    -13 -17  82 CALM      29.94R
IDAHO FALLS    PTCLDY     5  -2  72 N3        30.16R
SALMON         CLOUDY    12   9  85 CALM      30.20S
BOISE          FOG       13  11  92 S5        30.27R VSB 1
SPOKANE        FLURRIES  21  14  74 SE5       30.32R
$$

REGIONAL REPORTS...ALBERTA

CITY           SKY/WX    TMP DP  RH WIND       PRES   REMARKS
EDMONTON       FLURRIES  -6 -15  65 NW5       30.56R
CALGARY        PTCLDY    -8 -17  65 NW8       30.42R WCI -23
LETHBRIDGE     MOCLDY    -8 -11  84 W6        30.49R WCI -21
MEDICINE HAT   MOCLDY    -4  -9  77 W8        30.53R WCI -19
WATERTON GATE    N/A     -9 -15  77 NE1         N/A
MILK RIVER       N/A     -6  -9  84 NW9         N/A  WCI -22
ONEFOUR          N/A     -2  -6  84 NW17        N/A  WCI -24
$$

REGIONAL REPORTS...SASKATCHEWAN

CITY           SKY/WX    TMP DP  RH WIND       PRES   REMARKS
SWIFT CURRENT  CLOUDY    -8 -11  84 NW23G30   30.33R WCI -33
REGINA         CLOUDY     0  -6  78 NW21      30.30R WCI -23
SASKATOON      FLURRIES   0  -6  78 NW16      30.39R WCI -21
VAL MARIE        N/A     -9 -15  77 W8          N/A  WCI -26
ROCKGLEN         N/A     -8 -13  77 W14G23      N/A  WCI -28
ASSINIBOIA       N/A     -4 -11  71 NW15        N/A  WCI -25
$$




USA.gov is the U.S. government's official web portal to all federal, state and local government web resources and services.